Location: Byszew
(52.1813°N, 19.2693°E)
Time: 19:04:38
(UTC+00:00)

Cosmos 2219 Rocket - Pass Details

Date: 03 March 2021
Orbit: 826 x 848 km, 71.0° (Epoch: 17 April)

Event Time Altitude Azimuth Distance (km) Brightness Sun altitude
Rises 21:11:05 0° 259° (W) 3,370 5.6 -39.6°
Reaches altitude 10° 21:14:03 10° 274° (W) 2,442 4.9 -39.8°
Maximum altitude 21:18:24 23° 325° (NW) 1,731 4.3 -40.2°
Drops below altitude 10° 21:22:47 10° 16° (NNE) 2,460 5.0 -40.5°
Sets 21:25:47 0° 32° (NNE) 3,402 5.7 -40.8°
